Location: *
(48.8489°N, 2.3218°E)
Time: 12:32:57
(UTC+00:00)

Cosmos 1937 Rocket - Pass Details

Date: 23 August 2019
Orbit: 746 x 781 km, 74.0° (Epoch: 17 September)

Event Time Altitude Azimuth Distance (km) Brightness Sun altitude
Rises 21:25:05 0° 216° (SW) 3,246 6.6 -21.5°
Reaches altitude 10° 21:27:31 10° 222° (SW) 2,326 5.9 -21.8°
Maximum altitude 21:32:41 52° 298° (WNW) 963 4.3 -22.3°
Drops below altitude 10° 21:37:54 10° 16° (NNE) 2,347 6.5 -22.8°
Sets 21:40:22 0° 21° (NNE) 3,278 7.2 -23.1°
